Weather History for Arbor Vitae, WI

Change the Weather History Date:

Thursday, December 6, 2012

  Actual Average Record
Temperature  
Mean Temperature 34 °F -  
Max Temperature 37 °F 28 °F 50 °F (1939)
Min Temperature 30 °F 10 °F -22 °F (1926)
Degree Days  
Heating Degree Days 30    
Moisture  
Dew Point 31 °F    
Average Humidity 87    
Maximum Humidity 100    
Minimum Humidity 69    
Precipitation  
Precipitation 0.02 in - - ()
Sea Level Pressure  
Sea Level Pressure 29.82 in    
Wind  
Wind Speed 12 mph (SW)    
Max Wind Speed 18 mph    
Max Gust Speed 24 mph    
Visibility 7 miles    
Events Snow    
Averages and records for this station are not official NWS values.
T = Trace of Precipitation, MM = Missing Value Source: NWS Daily Summary

Daily Weather History Graph

Daily Weather History Graph

Search for Another Location

Airport:

Trip Planner

Search our weather history database for the weather conditions in past years. The results will help you decide how hot, cold, wet, or windy it might be!

Date:

Astronomy

Dec. 06, 2012 Rise Set
Actual Time 7:26 AM CST 4:14 PM CST
Civil Twilight 6:52 AM CST 4:48 PM CST
Nautical Twilight 6:14 AM CST 5:25 PM CST
Astronomical Twilight 5:38 AM CST 6:02 PM CST
Moon No Moon Rise 12:00 PM CST (12/6)
Length of Visible Light 9h 56m
Length of Day
8h 47m
Waning Gibbous, 49% of the Moon is Illuminated
Dec 6
Waning Gibbous
Dec 13
New
Dec 19
First Quarter
Dec 28
Full
Jan 4
Last Quarter

Hourly Weather History & Observations

Time (CST) Temp. Windchill Dew Point Humidity Pressure Visibility Wind Dir Wind Speed Gust Speed Precip Events Conditions
12:15 AM 32.0 °F 20.8 °F 23.0 °F 69% 30.00 in 10.0 mi South 17.3 mph 23.0 mph N/A   Overcast
12:35 AM 32.0 °F 22.1 °F 26.6 °F 80% 29.98 in 10.0 mi South 13.8 mph 19.6 mph N/A   Overcast
12:55 AM 32.0 °F 21.2 °F 26.6 °F 80% 29.97 in 10.0 mi South 16.1 mph 21.9 mph N/A   Overcast
1:15 AM 32.0 °F 21.2 °F 24.8 °F 75% 29.94 in 10.0 mi SSE 16.1 mph 21.9 mph N/A   Mostly Cloudy
1:35 AM 32.0 °F 22.1 °F 24.8 °F 75% 29.93 in 10.0 mi SSE 13.8 mph 24.2 mph N/A   Mostly Cloudy
1:55 AM 32.0 °F 21.6 °F 23.0 °F 69% 29.93 in 10.0 mi SSE 15.0 mph 24.2 mph N/A   Scattered Clouds
2:15 AM 32.0 °F 21.6 °F 24.8 °F 75% 29.91 in 10.0 mi SSE 15.0 mph 20.7 mph N/A   Scattered Clouds
2:35 AM 32.0 °F 22.1 °F 26.6 °F 80% 29.94 in 10.0 mi SSW 13.8 mph 21.9 mph N/A   Scattered Clouds
2:55 AM 32.0 °F 22.1 °F 26.6 °F 80% 29.92 in 10.0 mi South 13.8 mph 18.4 mph N/A   Mostly Cloudy
3:15 AM 32.0 °F 22.5 °F 26.6 °F 80% 29.90 in 10.0 mi South 12.7 mph 21.9 mph N/A   Overcast
3:35 AM 33.8 °F 25.8 °F 26.6 °F 75% 29.89 in 10.0 mi South 10.4 mph 21.9 mph N/A   Overcast
3:55 AM 33.8 °F 25.3 °F 26.6 °F 75% 29.88 in 10.0 mi South 11.5 mph 19.6 mph N/A   Overcast
4:15 AM 33.8 °F 25.3 °F 26.6 °F 75% 29.87 in 10.0 mi South 11.5 mph 19.6 mph N/A   Overcast
4:35 AM 33.8 °F 24.3 °F 26.6 °F 75% 29.87 in 10.0 mi South 13.8 mph 24.2 mph N/A   Overcast
4:55 AM 33.8 °F 23.9 °F 26.6 °F 75% 29.86 in 10.0 mi South 15.0 mph 23.0 mph N/A   Overcast
5:15 AM 33.8 °F 23.2 °F 26.6 °F 75% 29.86 in 10.0 mi South 17.3 mph 24.2 mph N/A   Overcast
5:35 AM 33.8 °F 25.3 °F 28.4 °F 81% 29.84 in 10.0 mi South 11.5 mph 18.4 mph N/A   Overcast
5:55 AM 35.6 °F 25.9 °F 30.2 °F 81% 29.84 in 10.0 mi South 16.1 mph 21.9 mph N/A   Overcast
6:27 AM 33.8 °F 23.9 °F 28.4 °F 81% 29.84 in 2.5 mi South 15.0 mph - N/A Snow Light Snow
6:36 AM 33.8 °F 24.3 °F 30.2 °F 87% 29.84 in 2.0 mi SSW 13.8 mph 20.7 mph N/A Snow Light Snow
6:56 AM 33.8 °F 23.9 °F 30.2 °F 87% 29.83 in 1.8 mi South 15.0 mph 19.6 mph N/A Snow Light Snow
7:16 AM 33.8 °F 24.8 °F 30.2 °F 87% 29.82 in 2.0 mi South 12.7 mph 20.7 mph 0.01 in Snow Light Snow
7:35 AM 32.0 °F 21.6 °F 32.0 °F 100% 29.81 in 2.0 mi South 15.0 mph 23.0 mph 0.01 in Snow Light Snow
7:55 AM 32.0 °F 22.1 °F 32.0 °F 100% 29.81 in 1.5 mi South 13.8 mph 20.7 mph 0.02 in Snow Light Snow
8:15 AM 33.8 °F 24.3 °F 32.0 °F 93% 29.80 in 1.8 mi South 13.8 mph - N/A Snow Light Snow
8:35 AM 33.8 °F 23.5 °F 32.0 °F 93% 29.79 in 2.5 mi South 16.1 mph 24.2 mph N/A Snow Light Snow
8:55 AM 33.8 °F 24.3 °F 32.0 °F 93% 29.78 in 4.0 mi South 13.8 mph 21.9 mph N/A Snow Light Snow
9:15 AM 35.6 °F 25.2 °F 32.0 °F 87% 29.78 in 4.0 mi South 18.4 mph - N/A Snow Light Snow
9:35 AM 35.6 °F 26.2 °F 33.8 °F 93% 29.78 in 3.0 mi SSW 15.0 mph 19.6 mph N/A Snow Light Snow
9:55 AM 35.6 °F 26.2 °F 33.8 °F 93% 29.78 in 5.0 mi SSW 15.0 mph 20.7 mph N/A   Overcast
10:15 AM 35.6 °F 26.6 °F 33.8 °F 93% 29.78 in 5.0 mi SSW 13.8 mph 21.9 mph N/A   Overcast
10:35 AM 35.6 °F 28.0 °F 33.8 °F 93% 29.78 in 5.0 mi SW 10.4 mph 19.6 mph N/A   Overcast
10:55 AM 35.6 °F 27.5 °F 33.8 °F 93% 29.77 in 5.0 mi SSW 11.5 mph 21.9 mph N/A   Overcast
11:15 AM 35.6 °F 27.5 °F 33.8 °F 93% 29.76 in 4.0 mi SSW 11.5 mph 18.4 mph N/A   Overcast
11:35 AM 35.6 °F 27.5 °F 33.8 °F 93% 29.75 in 4.0 mi SSW 11.5 mph 17.3 mph N/A   Overcast
11:55 AM 35.6 °F 27.1 °F 33.8 °F 93% 29.74 in 4.0 mi SSW 12.7 mph 17.3 mph N/A   Overcast
12:15 PM 35.6 °F 28.6 °F 33.8 °F 93% 29.73 in 4.0 mi SSW 9.2 mph 18.4 mph N/A   Overcast
12:35 PM 35.6 °F 28.6 °F 33.8 °F 93% 29.73 in 4.0 mi SW 9.2 mph - N/A   Overcast
12:55 PM 35.6 °F 28.0 °F 33.8 °F 93% 29.72 in 4.0 mi SW 10.4 mph 18.4 mph N/A   Overcast
1:15 PM 35.6 °F 28.0 °F 33.8 °F 93% 29.72 in 5.0 mi SW 10.4 mph - N/A   Overcast
1:35 PM 35.6 °F 29.2 °F 33.8 °F 93% 29.71 in 5.0 mi SW 8.1 mph 16.1 mph N/A   Overcast
1:55 PM 35.6 °F 30.7 °F 33.8 °F 93% 29.71 in 5.0 mi SW 5.8 mph - N/A   Overcast
2:15 PM 35.6 °F 28.6 °F 33.8 °F 93% 29.72 in 4.0 mi SW 9.2 mph - N/A   Overcast
2:35 PM 35.6 °F 29.9 °F 33.8 °F 93% 29.72 in 5.0 mi SW 6.9 mph - N/A   Overcast
2:55 PM 35.6 °F 31.7 °F 33.8 °F 93% 29.72 in 5.0 mi SW 4.6 mph - N/A   Overcast
3:15 PM 37.4 °F 33.8 °F 35.6 °F 93% 29.73 in 7.0 mi SW 4.6 mph - N/A   Overcast
3:35 PM 37.4 °F 33.8 °F 35.6 °F 93% 29.73 in 7.0 mi SW 4.6 mph - N/A   Overcast
3:55 PM 37.4 °F 32.1 °F 35.6 °F 93% 29.73 in 7.0 mi WSW 6.9 mph - N/A   Overcast
4:15 PM 37.4 °F 32.1 °F 35.6 °F 93% 29.74 in 7.0 mi West 6.9 mph - N/A   Overcast
4:35 PM 37.4 °F 30.8 °F 35.6 °F 93% 29.76 in 10.0 mi WNW 9.2 mph 23.0 mph N/A   Overcast
4:55 PM 35.6 °F 28.6 °F 32.0 °F 87% 29.76 in 10.0 mi WNW 9.2 mph 24.2 mph N/A   Mostly Cloudy
5:15 PM 35.6 °F 28.6 °F 32.0 °F 87% 29.78 in 10.0 mi WNW 9.2 mph - N/A   Scattered Clouds
5:35 PM 35.6 °F 30.7 °F 32.0 °F 87% 29.78 in 10.0 mi WNW 5.8 mph - N/A   Mostly Cloudy
5:55 PM 35.6 °F 30.7 °F 32.0 °F 87% 29.78 in 10.0 mi WNW 5.8 mph - N/A   Overcast
6:15 PM 35.6 °F 29.9 °F 32.0 °F 87% 29.79 in 10.0 mi West 6.9 mph - N/A   Overcast
6:35 PM 35.6 °F 31.7 °F 32.0 °F 87% 29.79 in 10.0 mi West 4.6 mph - N/A   Overcast
6:55 PM 35.6 °F 32.8 °F 32.0 °F 87% 29.80 in 10.0 mi West 3.5 mph - N/A   Overcast
7:15 PM 35.6 °F 31.7 °F 32.0 °F 87% 29.80 in 10.0 mi West 4.6 mph - N/A   Overcast
7:35 PM 33.8 °F 29.6 °F 32.0 °F 93% 29.81 in 10.0 mi West 4.6 mph - N/A   Overcast
7:55 PM 33.8 °F 27.7 °F 30.2 °F 87% 29.81 in 10.0 mi West 6.9 mph - N/A   Overcast
8:35 PM 33.8 °F 29.6 °F 30.2 °F 87% 29.82 in 10.0 mi West 4.6 mph - N/A   Overcast
8:55 PM 33.8 °F 28.6 °F 30.2 °F 87% 29.83 in 10.0 mi West 5.8 mph - N/A   Overcast
9:15 PM 33.8 °F 27.0 °F 30.2 °F 87% 29.84 in 10.0 mi West 8.1 mph - N/A   Overcast
9:35 PM 33.8 °F 27.0 °F 30.2 °F 87% 29.84 in 10.0 mi WNW 8.1 mph - N/A   Scattered Clouds
9:55 PM 32.0 °F 26.4 °F 28.4 °F 87% 29.84 in 10.0 mi WNW 5.8 mph - N/A   Clear
10:15 PM 32.0 °F 26.4 °F 28.4 °F 87% 29.84 in 10.0 mi NW 5.8 mph - N/A   Clear
10:35 PM 32.0 °F 24.8 °F 26.6 °F 80% 29.84 in 10.0 mi WNW 8.1 mph - N/A   Mostly Cloudy
10:55 PM 32.0 °F 23.6 °F 28.4 °F 87% 29.85 in 10.0 mi NW 10.4 mph - N/A   Mostly Cloudy
11:15 PM 32.0 °F 27.5 °F 28.4 °F 87% 29.86 in 10.0 mi WNW 4.6 mph - N/A   Clear
11:35 PM 32.0 °F 26.4 °F 28.4 °F 87% 29.85 in 10.0 mi NW 5.8 mph - N/A   Clear
11:55 PM 30.2 °F 25.4 °F 26.6 °F 86% 29.86 in 10.0 mi NW 4.6 mph - N/A   Clear